Regional Weather Roundup
Issued by NWS Austin/San Antonio, TX

Home | Current Version | Previous Version | Text Only | Print | Product List | Glossary On
Versions: 1 2 3 4 5 6 7 8 9 10 11 12 13 14 15 16 17 18 19 20 21 22 23 24 25 26 27 28 29 30 31 32 33 34 35 36 37 38 39 40 41 42 43 44 45 46 47 48 49 50
000
ASUS44 KEWX 241211
RWREWX
SOUTH TEXAS REGIONAL WEATHER ROUNDUP
NATIONAL WEATHER SERVICE AUSTIN/SAN ANTONIO TX
700 AM CDT SAT AUG 24 2019

NOTE: "FAIR" INDICATED FEW OR NO CLOUDS BELOW 12,000 FEET WITH NO
SIGNIFICANT WEATHER AND/OR OBSTRUCTIONS TO VISIBILITY.

* - THESE STATIONS ARE NOT NWS OR FAA STATIONS...AND ARE NOT SUBJECT
    TO NWS AND FAA QUALITY CONTROL.

TXZ171-172-183>190-241300-
TEXAS HILL COUNTRY AND EDWARDS PLATEAU

CITY           SKY/WX    TMP DP  RH WIND       PRES   REMARKS
JUNCTION       CLOUDY    75  72  90 CALM      29.98R
6HR MIN TEMP:  74; 6HR MAX TEMP:  76; 6HR PCP: TRACE;

*LLANO         CLEAR     75  73  94 CALM      29.98S
BURNET         CLEAR     77  70  79 NE5       29.97S
6HR MIN TEMP:  77; 6HR MAX TEMP:  80;

*HORSESHOE BAY CLEAR     75  72  88 CALM      29.95R
*KERRVILLE     MOCLDY    74  71  91 CALM      29.96R
6HR MIN TEMP:  74; 6HR MAX TEMP:  74; 6HR PCP:  0.15;

*FREDERICKSBRG PTCLDY    74  72  91 CALM      29.97R
6HR MIN TEMP:  73; 6HR MAX TEMP:  74; 6HR PCP:  0.19;

*ROCKSPRINGS   CLOUDY    72  70  94 SE8       30.03R
*BOERNE        PTCLDY    73  73 100 CALM      29.96R
*CASTROVILLE   CLEAR     77  74  91 SE3       29.94R
HONDO          CLEAR     76  72  87 E5        29.93R
6HR MIN TEMP:  76; 6HR MAX TEMP:  81; 6HR PCP: TRACE;

*UVALDE        CLEAR     73  73  99 CALM      29.93S
6HR MIN TEMP:  73; 6HR MAX TEMP:  84; 6HR PCP:  0.17;

DEL RIO        CLEAR     77  72  84 E9        29.90R
6HR MIN TEMP:  77; 6HR MAX TEMP:  85;

LAUGHLIN AFB   CLOUDY    75  71  88 SE8       29.91R
6HR MIN TEMP:  75; 6HR MAX TEMP:  83;

SPOFFORD       CLEAR     74  73  96 E7        29.87R
6HR MIN TEMP:  73; 6HR MAX TEMP:  76; 6HR PCP: TRACE;

*EAGLE PASS    CLEAR     75  72  88 E5        29.91S
CARRIZO SPRGS  MOCLDY    73  73 100 CALM      29.91R
$$

TXZ173-191>194-202-209-217>225-228-241300-
CENTRAL AND SOUTH CENTRAL TEXAS

CITY           SKY/WX    TMP DP  RH WIND       PRES   REMARKS
GEORGETOWN     CLEAR     75  73  93 E5        29.96R
6HR MIN TEMP:  75; 6HR MAX TEMP:  79;

AUSTIN/BERGSTM PTCLDY    76  74  93 E3        29.92S
6HR MIN TEMP:  76; 6HR MAX TEMP:  79;

AUSTIN/MABRY   PTCLDY    77  73  87 E5        29.94R
6HR MIN TEMP:  77; 6HR MAX TEMP:  80;

*AUSTIN/EXEC   CLEAR     73  73 100 E3        29.94S
*LAGO VISTA    CLEAR     74  72  95 E3        29.95S
6HR MIN TEMP:  74; 6HR MAX TEMP:  78;

SAN MARCOS     CLOUDY    77  74  90 NE7       29.94R
6HR MIN TEMP:  75; 6HR MAX TEMP:  77;

NEW BRAUNFELS  CLOUDY    76  73  91 E9        29.91R
6HR MIN TEMP:  76; 6HR MAX TEMP:  79;

RANDOLPH AFB   CLOUDY    77  73  88 E7        29.93R
6HR MIN TEMP:  77; 6HR MAX TEMP:  79;

SEGUIN         CLOUDY    75  73  95 NE7       29.96R
6HR MIN TEMP:  74; 6HR MAX TEMP:  76;

KELLY FIELD    MOCLDY    79  75  86 SE7       29.90R
6HR MIN TEMP:  79; 6HR MAX TEMP:  81;

SAN ANTONIO    MOCLDY    78  74  87 SE9       29.93R
6HR MIN TEMP:  77; 6HR MAX TEMP:  80;

STINSON FIELD  CLOUDY    80  75  84 NE3       29.90R
6HR MIN TEMP:  80; 6HR MAX TEMP:  81;

PLEASANTON     PTCLDY    77  73  88 E3        29.91R
6HR MIN TEMP:  76; 6HR MAX TEMP:  77;

*LA GRANGE     CLOUDY    77  77 100 CALM      29.90F
6HR MIN TEMP:  76; 6HR MAX TEMP:  78;

*GIDDINGS      CLEAR     77  77 100 CALM      29.93F
6HR MIN TEMP:  77; 6HR MAX TEMP:  80;

*GONZALES      PTCLDY    76  76 100 NE5       29.91R
6HR MIN TEMP:  75; 6HR MAX TEMP:  77;

$$

TXZ163>164-176>182-195>201-210>213-226-227-235-241300-
SOUTHEAST TEXAS

CITY           SKY/WX    TMP DP  RH WIND       PRES   REMARKS
COLLEGE STN    PTCLDY    77  75  93 NE6       29.92F
6HR MIN TEMP:  77; 6HR MAX TEMP:  79;

*BRYAN         PTCLDY    76  76 100 NE3       29.94F
6HR MIN TEMP:  76; 6HR MAX TEMP:  80;

*CALDWELL      CLEAR     75  74  96 CALM      29.93F
6HR MIN TEMP:  75; 6HR MAX TEMP:  78;

*CROCKETT      FOG       73  72  94 CALM      29.98R VSB 1/2
*BRENHAM       MOCLDY    76  76 100 CALM      29.93S
6HR MIN TEMP:  76; 6HR MAX TEMP:  78;

HUNTSVILLE     MOCLDY    75  73  93 CALM      29.94S FOG
6HR MIN TEMP:  75; 6HR MAX TEMP:  79;

CONROE         CLOUDY    75  73  93 CALM      29.94R
6HR MIN TEMP:  75; 6HR MAX TEMP:  77; 6HR PCP: TRACE;

HOUSTON BUSH   MOCLDY    77  74  90 NE5       29.92R
6HR MIN TEMP:  77; 6HR MAX TEMP:  78;

HOUSTON HOBBY  MOCLDY    79  74  84 N7        29.91R
6HR MIN TEMP:  77; 6HR MAX TEMP:  80;

*HOUSTON SW AP MOCLDY    75  75 100 N3        29.92R
6HR MIN TEMP:  73; 6HR MAX TEMP:  75;

PEARLAND       CLOUDY    78  74  87 NE3       29.93R
6HR MIN TEMP:  76; 6HR MAX TEMP:  78;

HOUSTON HOOKS  CLOUDY    76  73  91 N5        29.93R
6HR MIN TEMP:  75; 6HR MAX TEMP:  77;

ELLINGTON FLD  MOCLDY    79  73  83 NE3       29.91R
SUGAR LAND     FAIR      78  76  93 NE5       29.91R
6HR MIN TEMP:  75; 6HR MAX TEMP:  78;

*HOUSTON EXEC  FAIR      75  75 100 NE5       29.93R
*CLEVELAND MUN FOG       75  75 100 CALM      29.95R VSB 1/2
6HR MIN TEMP:  74; 6HR MAX TEMP:  75;

*WHARTON       CLEAR     74  73  97 CALM      29.91S FOG
6HR MIN TEMP:  74; 6HR MAX TEMP:  76;

*COLUMBUS      FAIR      75  72  91 CALM      29.92S
6HR MIN TEMP:  74; 6HR MAX TEMP:  77;

*EAGLE LAKE    CLEAR     77  76  98 N3        29.91
6HR MIN TEMP:  77; 6HR MAX TEMP:  79;

$$

TXZ214>216-236>238-241300-
THE UPPER TEXAS COAST

CITY           SKY/WX    TMP DP  RH WIND       PRES   REMARKS
*ORANGE        MOCLDY    77  77  99 E7        29.95R
6HR MIN TEMP:  77; 6HR MAX TEMP:  82; 6HR PCP:  0.02;

PORT ARTHUR    MOCLDY    77  75  93 E9        29.91S
6HR MIN TEMP:  76; 6HR MAX TEMP:  82; 6HR PCP: TRACE;

GALVESTON      MOCLDY    80  78  94 NE5       29.91R
6HR MIN TEMP:  78; 6HR MAX TEMP:  84; 6HR PCP:  0.56;

ANGLETON       MOCLDY    76  74  93 CALM      29.92R
6HR MIN TEMP:  75; 6HR MAX TEMP:  77;

*BAY CITY      CLEAR     78  77  96 CALM      29.90R
PALACIOS       CLEAR     80  74  81 N6        29.88F
6HR MIN TEMP:  79; 6HR MAX TEMP:  86;

$$

TXZ229>234-239>247-241300-
TEXAS COASTAL BEND AND RIO GRANDE PLAINS

CITY           SKY/WX    TMP DP  RH WIND       PRES   REMARKS
VICTORIA       PTCLDY    76  74  93 NE3       29.89S
6HR MIN TEMP:  76; 6HR MAX TEMP:  78;

*BEEVILLE      NOT AVBL
ROCKPORT       CLEAR     82  78  88 S3        29.88R HX  91
6HR MIN TEMP:  82; 6HR MAX TEMP:  83;

*PORT ARANSAS  MOCLDY    83  79  88 S7        29.89S HX  95
6HR MIN TEMP:  83; 6HR MAX TEMP:  84;

*PORT LAVACA   CLEAR     80  78  94 CALM      29.89F
6HR MIN TEMP:  80; 6HR MAX TEMP:  82; 6HR PCP:  0.01;

*INGLESIDE     CLEAR     83  80  90 CALM      29.88S HX  95
CORPUS CHRISTI CLOUDY    80  79  96 E5        29.87S
6HR MIN TEMP:  79; 6HR MAX TEMP:  82;

CORPUS NAS     PTCLDY    82  81  96 SE6       29.87S HX  95
6HR MIN TEMP:  82; 6HR MAX TEMP:  84; 6HR PCP: TRACE;

*ROBSTOWN      CLEAR     79  76  91 E5        29.88S
6HR MIN TEMP:  78; 6HR MAX TEMP:  81;

ALICE          CLEAR     79  75  87 E5        29.87R
6HR MIN TEMP:  78; 6HR MAX TEMP:  81;

KINGSVILLE NAS CLEAR     80  76  87 E5        29.87R
6HR MIN TEMP:  80; 6HR MAX TEMP:  82;

COTULLA        PTCLDY    80  71  74 CALM      29.90R
6HR MIN TEMP:  80; 6HR MAX TEMP:  83; 6HR PCP: TRACE;

LAREDO         CLEAR     81  72  74 N5        29.89R
6HR MIN TEMP:  77; 6HR MAX TEMP:  81;

$$

TXZ248>255-241300-
DEEP SOUTH TEXAS



USA.gov is the U.S. government's official web portal to all federal, state and local government web resources and services.